{"data":{"norad_id":48055,"epoch":"2026-05-24T23:53:49.625664Z","epoch_age_seconds":79355,"freshness":"FRESH","line1":"1 48055U 21025P   26144.99571326 -.00000171  00000+0 -50413-3 0  9997","line2":"2 48055  87.8950 324.8417 0001598 103.6019 256.5288 13.13469153250529","mean_motion":13.13469153,"eccentricity":0.0001598,"inclination_deg":87.895,"raan_deg":324.8417,"arg_perigee_deg":103.6019,"mean_anomaly_deg":256.5288,"bstar":-0.00050413,"rev_number":25052,"period_min":109.63333221119,"perigee_km":1208.5561146506,"apogee_km":1210.9812093002,"semimajor_km":7587.9056619754,"source":"CELESTRAK","updated_at":"2026-05-25T13:38:22.390126Z"}}